Showing default

ORBCOMM FM 104, 40090

Orbit data source: Space-Track

ORBCOMM FM 104, 40090 is a payload satellite owned by Orbcomm (US) in LEO that was launched on Mon, 14 Jul 2014 UTC via an FALCON 9 launch vehicle from the Air Force Eastern Test Range (AFETR). Payload-class satellites include a variety of spacecraft equipped with specific instruments for various scientific and technological missions. These include communications satellites like Starlink; space stations such as the ISS; scientific satellites like the Hubble; Earth observation satellites from companies like Planet Labs, Umbra, and HawkEye 360; GPS; miniature CubeSats for education and research; and military/defense satellites.

Loading next visibility...
Identifier
40090, 2014-040E
Orbit
LEO
Country
Flag of USUS / ORB
Related business
Manufacturer
SNC Louisville
Mission
Non-operational Commercial Communications
Bus & Motor
SN-100A, Unknown motor
Mass
172 kg wet, 158 kg dry
Launch date (UTC)
2014-07-14 (12 years ago)
Launch vehicle
FALCON 9
Launch site
Air Force Eastern Test Range (AFETR)
Object type
Payload
Rocket body
Debris
Shape & HBR
Box + 1 Pan + 1 Ant, 5.3 m
Radar Cross Section
2.222 m², Medium (>0.1 m² and < 1m²)

Expand to show TLE details & history
Last TLE update: 8 hours ago

TLE from 8 hours ago
0 ORBCOMM FM 104
1 40090U 14040E   26263.11385297  .00000212  00000-0  83777-4 0  9998
2 40090  47.0055  42.6553 0016047 150.1449 210.0355 14.57363741647692
Epoch: 2026-09-20T02:43Z
TLE epoch observation values (Epoch: 2026-09-20T02:43:56.896Z)
Latitude
-0°
Longitude
2.65554°
Altitude
711.754 km
Speed
7.496 km/s
True Right ascension
02h 50m 37s
True Declination
0° 00' 00"
Sunlit
Object was in full shadow at epoch
Visualization orbit readout
Latitude
Unknown
Longitude
Unknown
Altitude
Unknown
Speed
Unknown
Apparent Right ascension
Unknown
Apparent Declination
Unknown
Sunlit
N/A
Visualization observer readout
Local Sidereal Time
03:55:26
Azimuth
Unknown
Elevation
Unknown
Doppler factor
Unknown
Orbital elements
Apogee altitude
714.295 km
Perigee altitude
691.569 km
Semi-major axis
7,081.069 km
Eccentricity
0.0016
Inclination
47.0055°
RAAN
42.6553°
Arg. of periapsis
150.1449°
True anomaly
209.94362°
Mean anomaly
210.0355°
Eccentric anomaly
209.98954°
Mean motion
3.64246 °/min
Orbital period
98.83 mins
BSTAR
0.000083777
Loading maneuver chart data...
Computing Atmospheric mass density...
Loading historical data...
Loading historical data...
Loading historical data...
Loading historical data...
Loading historical data...
Loading historical data...
Loading historical data...

Documentation

Showing up to 5 results
|